Haleyville, AL

6:10 PM CST on February 18, 2018 (GMT -0600)
Haleyville

Weather History for K1M4 - October, 2011

Change the Weather History Date:

Monday, October 24, 2011

  Actual Average (KJFX) Record (KJFX)
Temperature  
Mean Temperature 57 °F -  
Max Temperature 72 °F 71 °F 84 °F (1978)
Min Temperature 42 °F 45 °F 29 °F (1962)
Degree Days  
Heating Degree Days 8    
Growing Degree Days 7 (Base 50)    
Moisture  
Dew Point 48 °F    
Average Humidity 88    
Maximum Humidity 100    
Minimum Humidity 42    
Precipitation  
Precipitation 0.00 in - - ()
Sea Level Pressure  
Sea Level Pressure 30.22 in    
Wind  
Wind Speed 0 mph (NNW)    
Max Wind Speed 7 mph    
Max Gust Speed -    
Visibility 5 miles    
Events Fog    
Averages and records for this station are not official NWS values.
T = Trace of Precipitation, MM = Missing Value Source: NWS Daily Summary

Daily Weather History Graph

Daily Weather History Graph

Search for Another Location

Airport or City:

Trip Planner

Search our weather history database for the weather conditions in past years. The results will help you decide how hot, cold, wet, or windy it might be!

Date:

Astronomy

Oct. 24, 2011 Rise Set
Actual Time 7:02 AM CDT 6:05 PM CDT
Civil Twilight 6:37 AM CDT 6:31 PM CDT
Nautical Twilight 6:08 AM CDT 7:00 PM CDT
Astronomical Twilight 5:38 AM CDT 7:29 PM CDT
Moon 4:26 AM CDT (10/24) 4:26 PM CDT (10/24)
Length of Visible Light 11h 53m
Length of Day
11h 02m
Waning Crescent, 7% of the Moon is Illuminated
Oct 24
Waning Crescent
Oct 26
New
Nov 2
First Quarter
Nov 10
Full
Nov 18
Last Quarter

Hourly Weather History & Observations

Time (CDT) Temp. Dew Point Humidity Pressure Visibility Wind Dir Wind Speed Gust Speed Precip Events Conditions
12:56 AM 52.0 °F 50.9 °F 96% 30.21 in 10.0 mi Calm Calm - N/A   Overcast
1:56 AM 52.0 °F 50.9 °F 96% 30.21 in 10.0 mi Calm Calm - N/A   Mostly Cloudy
2:56 AM 52.0 °F 52.0 °F 100% 30.20 in 10.0 mi Calm Calm - N/A   Mostly Cloudy
3:30 AM 50.0 °F 50.0 °F 100% 30.13 in 1.2 mi Calm Calm - N/A   Mostly Cloudy
3:32 AM 50.0 °F 50.0 °F 100% 30.13 in 0.5 mi Calm Calm - N/A Fog Fog
3:41 AM 48.2 °F 48.2 °F 100% 30.13 in 0.2 mi Calm Calm - N/A Fog Fog
3:56 AM 47.8 °F 47.8 °F 100% 30.21 in 0.2 mi Calm Calm - N/A Fog Fog
4:08 AM 48.2 °F 48.2 °F 100% 30.13 in 0.8 mi Calm Calm - N/A   Clear
4:22 AM 48.2 °F 48.2 °F 100% 30.13 in 0.5 mi Calm Calm - N/A Fog Fog
4:49 AM 46.4 °F 46.4 °F 100% 30.14 in 1.0 mi Calm Calm - N/A   Clear
4:56 AM 45.9 °F 45.9 °F 100% 30.23 in 1.0 mi Calm Calm - N/A   Clear
5:15 AM 46.4 °F 46.4 °F 100% 30.14 in 0.5 mi Calm Calm - N/A Fog Fog
5:25 AM 46.4 °F 46.4 °F 100% 30.15 in 0.2 mi Calm Calm - N/A Fog Fog
5:42 AM 44.6 °F 44.6 °F 100% 30.15 in 0.2 mi Calm Calm - N/A Fog Fog
5:49 AM 44.6 °F 44.6 °F 100% 30.15 in 0.2 mi Calm Calm - N/A Fog Fog
5:56 AM 43.9 °F 43.9 °F 100% 30.25 in 0.2 mi Calm Calm - N/A Fog Fog
6:35 AM 44.6 °F 44.6 °F 100% 30.16 in 0.2 mi Calm Calm - N/A Fog Fog
6:56 AM 43.0 °F 43.0 °F 100% 30.25 in 0.2 mi Calm Calm - N/A Fog Fog
7:07 AM 42.8 °F 42.8 °F 100% 30.18 in 0.2 mi Calm Calm - N/A Fog Fog
7:13 AM 42.8 °F 42.8 °F 100% 30.18 in 0.2 mi Calm Calm - N/A Fog Fog
7:36 AM 42.8 °F 42.8 °F 100% 30.19 in 0.2 mi Calm Calm - N/A Fog Fog
7:56 AM 45.9 °F 45.9 °F 100% 30.28 in 1.0 mi Calm Calm - N/A   Clear
8:00 AM 46.4 °F 46.4 °F 100% 30.20 in 1.5 mi Calm Calm - N/A   Clear
8:11 AM 46.4 °F 46.4 °F 100% 30.20 in 3.0 mi Calm Calm - N/A   Clear
8:56 AM 52.0 °F 52.0 °F 100% 30.31 in 10.0 mi Calm Calm - N/A   Clear
9:56 AM 59.9 °F 52.0 °F 75% 30.31 in 10.0 mi ENE 3.5 mph - N/A   Clear
10:56 AM 63.0 °F 52.0 °F 67% 30.31 in 10.0 mi NNW 5.8 mph - N/A   Clear
11:56 AM 64.9 °F 52.0 °F 63% 30.31 in 10.0 mi Calm Calm - N/A   Clear
12:56 PM 68.9 °F 47.8 °F 47% 30.28 in 10.0 mi Calm Calm - N/A   Clear
1:56 PM 72.0 °F 47.8 °F 42% 30.27 in 10.0 mi North 5.8 mph - N/A   Clear
2:56 PM 72.0 °F 50.0 °F 46% 30.25 in 10.0 mi NW 4.6 mph - N/A   Clear
3:56 PM 72.9 °F 48.9 °F 43% 30.25 in 10.0 mi WNW 6.9 mph - N/A   Clear
4:56 PM 70.9 °F 50.0 °F 48% 30.27 in 10.0 mi NW 3.5 mph - N/A   Clear
5:56 PM 65.8 °F 48.9 °F 54% 30.28 in 10.0 mi Calm Calm - N/A   Clear
7:56 PM 54.9 °F 50.9 °F 86% 30.32 in 5.0 mi Calm Calm - N/A   Clear
8:56 PM 52.0 °F 50.9 °F 96% 30.33 in 10.0 mi Calm Calm - N/A   Clear
9:56 PM 50.0 °F 50.0 °F 100% 30.33 in 10.0 mi Calm Calm - N/A   Clear
11:56 PM 46.9 °F 46.9 °F 100% 30.33 in 10.0 mi Calm Calm - N/A   Clear